Location: Ponte Samoggia
(44.5667°N, 11.1333°E)
Time: 17:24:51
(UTC+00:00)

USA 308 - Pass Details

Date: 26 May 2022
Orbit: 549 x 558 km, 54.0° (Epoch: 14 June)

Event Time Altitude Azimuth Distance (km) Brightness Sun altitude
Exits shadow 00:40:53 53° 265° (W) 691 3.1 -21.3°
Maximum altitude 00:41:44 70° 327° (NNW) 594 3.0 -21.2°
Drops below altitude 10° 00:45:54 10° 52° (NE) 1,840 6.4 -21.0°
Sets 00:48:12 0° 54° (NE) 2,750 7.4 -20.8°
